This is the latest recevied weather packets stored in our database for station/object N1ICS-1. If no packets are shown the sender has not sent any weather packets the latest 10 day(s).
| Time | Temp. | Humidity | Pressure | Rain* | Wind** | Luminosity | Snow |
|---|---|---|---|---|---|---|---|
| 1777702802 | 1.67° C | 85% | 1019.2 hPa | 0 mm | - | 0 W/m² | - |
| 1777702501 | 1.67° C | 84% | 1019.3 hPa | 0 mm | - | 0 W/m² | - |
| 1777702202 | 2.22° C | 84% | 1019.4 hPa | 0 mm | - | 0 W/m² | - |
| 1777701902 | 1.67° C | 84% | 1019.3 hPa | 0 mm | - | 0 W/m² | - |
| 1777701603 | 1.67° C | 86% | 1019.2 hPa | 0 mm | - | 0 W/m² | - |
| 1777701302 | 1.67° C | 86% | 1019.2 hPa | 0 mm | - | 0 W/m² | - |
| 1777701002 | 1.67° C | 85% | 1019.2 hPa | 0 mm | - | 0 W/m² | - |
| 1777700702 | 2.22° C | 84% | 1019.2 hPa | 0 mm | - | 0 W/m² | - |
| 1777700401 | 2.22° C | 83% | 1019.2 hPa | 0 mm | - | 0 W/m² | - |
| 1777700102 | 2.22° C | 83% | 1019.3 hPa | 0 mm | - | 0 W/m² | - |
| 1777699801 | 2.22° C | 82% | 1019.1 hPa | 0 mm | - | 0 W/m² | - |
| 1777699502 | 2.78° C | 82% | 1019.1 hPa | 0 mm | - | 0 W/m² | - |
| 1777699202 | 2.78° C | 82% | 1019.1 hPa | 0 mm | - | 0 W/m² | - |
| 1777698902 | 2.78° C | 82% | 1019.4 hPa | 0 mm | - | 0 W/m² | - |
| 1777698602 | 2.22° C | 83% | 1019.1 hPa | 0 mm | - | 0 W/m² | - |
| 1777698301 | 2.78° C | 83% | 1019.2 hPa | 0 mm | - | 0 W/m² | - |
| 1777698002 | 2.78° C | 81% | 1019 hPa | 0 mm | - | 0 W/m² | - |
| 1777697702 | 2.78° C | 81% | 1019.2 hPa | 0 mm | - | 0 W/m² | - |
| 1777697402 | 2.78° C | 81% | 1019.1 hPa | 0 mm | - | 0 W/m² | - |
| 1777697102 | 3.33° C | 80% | 1019.2 hPa | 0 mm | - | 0 W/m² | - |
| 1777696801 | 2.78° C | 81% | 1019.2 hPa | 0 mm | - | 0 W/m² | - |
| 1777696502 | 2.22° C | 84% | 1019.3 hPa | 0 mm | - | 0 W/m² | - |
| 1777696202 | 2.22° C | 87% | 1019.4 hPa | 0 mm | - | 0 W/m² | - |
| 1777695902 | 2.22° C | 85% | 1019.4 hPa | 0 mm | - | 0 W/m² | - |
| 1777695601 | 2.22° C | 88% | 1019.3 hPa | 0 mm | - | 0 W/m² | - |
* Rain latest hour (hover to see other rain measurements)
** Current wind speed in m/s (hover to see current wind gust speed)